RH
45 42 39 39 38 32 28 23 20 18 17 16 11 8 7 6 6 5 8 8 7 8 7 6 25 87 70 100 100 93 88 89 21 20 16 10 9 9
54 48 43 41 40 38 34 29 25 21 18 17 16 12 8 7 6 5 7 13 9 9 9 5 12 57 95 85 98 98 99 92 23 20 17 11 9 9
54 50 46 42 39 36 35 33 30 28 25 22 21 18 13 9 8 7 6 9 14 10 11 7 6 19 88 98 99 100 95 96 42 20 19 12 9 9
50 48 46 41 39 38 36 34 33 31 29 27 26 24 22 16 10 9 7 6 12 16 10 11 6 10 76 99 99 100 99 100 66 21 21 15 10 10
33 31 28 25 24 21 20 20 20 21 20 21 21 19 16 20 18 15 11 8 6 14 17 13 10 6 70 99 100 100 100 100 51 22 23 18 11 10
22 23 23 22 20 19 18 17 16 16 16 16 17 17 14 11 14 17 17 14 8 7 19 24 16 9 15 91 98 99 100 99 93 25 25 21 12 10
14 16 20 21 20 20 19 17 15 14 13 13 15 16 16 12 10 11 14 16 15 8 7 28 24 16 11 16 86 98 98 100 100 37 28 24 14 11
14 20 23 25 23 22 21 21 19 16 13 12 11 11 12 9 9 8 10 12 14 15 7 13 31 22 24 24 10 46 85 100 100 81 46 28 18 12
24 25 23 22 24 21 20 20 20 18 16 14 13 10 9 9 9 10 8 8 10 13 13 7 26 30 20 89 42 10 38 95 100 96 100 35 23 13
31 30 29 26 27 25 22 24 26 27 24 26 21 17 15 12 14 13 12 8 8 7 11 12 12 33 23 85 100 71 30 71 84 98 98 69 28 15
64 67 66 58 50 49 49 41 37 38 43 45 38 32 30 20 16 20 18 12 6 7 6 13 10 25 31 59 99 100 74 76 99 99 100 73 30 17
64 71 85 88 84 79 78 67 55 50 53 51 50 43 40 31 27 36 29 20 8 6 6 8 12 10 37 29 96 100 100 96 100 100 100 54 32 19
70 74 81 94 97 99 100 98 81 80 73 70 60 54 53 46 43 50 44 33 16 7 6 6 8 10 25 34 33 81 100 100 98 99 100 44 36 22
84 78 80 86 87 95 100 100 100 100 98 90 86 74 70 66 64 67 57 46 32 12 12 6 6 10 14 38 14 35 74 100 97 99 99 79 43 27
91 92 91 99 98 96 100 100 100 100 100 99 94 85 82 78 79 83 75 61 46 28 16 9 6 11 12 36 22 73 100 100 95 99 99 99 63 33
100 100 100 100 95 98 100 98 100 100 100 100 94 98 94 81 70 75 76 70 58 42 26 13 9 13 15 28 31 26 99 99 99 99 100 99 82 40
100 100 98 99 100 100 98 93 88 98 100 100 100 100 96 91 76 71 71 65 59 42 38 16 12 15 18 24 28 57 98 98 98 97 99 99 95 45
100 100 100 100 100 94 95 98 98 93 94 100 100 100 98 91 87 82 78 67 62 48 44 23 16 17 19 21 26 24 97 97 98 96 98 99 96 50
98 96 99 100 100 99 100 98 96 98 100 97 96 98 99 96 92 83 78 73 72 60 48 29 18 18 16 23 21 39 97 98 98 98 98 99 99 61
100 98 97 97 97 98 98 98 99 98 100 100 100 94 98 100 100 91 80 78 76 66 45 32 20 18 16 22 12 44 99 98 97 97 98 99 99 94
98 99 100 99 98 99 99 98 100 100 100 100 100 100 99 100 95 92 89 86 78 64 46 32 20 26 27 23 13 60 97 97 98 98 98 98 98 98
100 100 100 100 100 100 100 100 100 100 100 100 100 100 100 95 91 90 94 90 78 58 45 43 40 36 28 21 13 61 100 98 97 98 98 97 96 89
100 100 100 100 100 100 100 100 100 100 100 100 100 100 100 100 92 90 95 96 85 66 57 55 47 37 26 18 11 37 98 97 96 97 97 92 98 96
Wind_Speed
36 37 37 39 40 40 41 42 45 46 40 27 29 30 32 33 28 28 27 26 29 31 34 36 38 37 45 39 48 41 33 33 30 26 23 20 17 14
40 40 40 41 42 43 43 44 46 48 51 40 31 31 34 34 34 30 30 27 31 33 34 38 41 40 38 46 45 46 41 34 31 29 25 23 20 16
42 43 42 43 43 43 44 46 47 49 53 51 44 35 34 36 36 34 32 31 30 35 36 37 40 41 43 36 41 45 43 38 33 32 27 25 23 19
43 45 45 45 45 46 46 47 49 50 53 55 51 44 37 38 38 38 33 34 32 35 38 36 42 43 43 43 42 51 42 36 35 34 30 27 25 22
47 48 49 49 48 48 48 49 49 50 51 53 54 49 43 38 40 40 39 35 35 35 39 39 40 45 49 51 50 48 50 39 37 35 33 29 28 26
52 52 52 52 51 51 51 52 53 53 53 54 55 55 51 42 40 41 42 40 35 38 38 39 41 44 48 53 48 47 51 50 38 37 36 32 31 28
52 52 51 50 50 51 51 51 51 53 54 56 57 58 58 50 44 41 43 43 37 40 39 40 40 42 46 54 58 51 52 53 36 37 37 36 33 31
59 56 54 53 53 52 52 52 51 51 51 53 55 58 60 54 48 45 43 43 43 41 42 40 41 42 43 47 52 58 51 53 50 43 38 40 36 35
59 58 57 56 56 54 54 55 55 55 55 54 53 52 54 55 48 44 42 45 44 42 42 42 42 41 46 38 46 53 55 54 56 50 42 43 40 39
54 55 57 57 57 58 58 56 55 55 55 54 54 52 50 51 47 45 41 44 46 43 43 44 40 41 45 44 38 45 54 60 60 59 50 46 45 42
45 46 49 51 52 52 54 55 55 53 52 52 51 50 47 46 46 43 42 40 46 46 43 45 40 42 44 50 50 42 51 53 57 58 55 53 50 46
34 36 37 39 40 42 44 47 50 48 49 49 49 50 46 45 46 47 42 39 40 46 44 43 42 40 45 48 57 53 51 53 57 57 58 57 55 51
29 28 28 30 32 34 35 38 42 41 43 45 47 46 45 45 45 44 41 38 39 46 43 42 43 40 44 45 55 55 50 61 59 64 53 57 58 55
31 28 26 26 26 27 29 29 30 31 36 39 41 42 41 42 44 43 39 40 38 45 41 44 44 41 44 47 49 52 59 62 65 71 69 60 59 57
28 27 26 26 26 26 26 25 26 29 31 36 38 39 40 41 41 40 40 41 41 44 41 43 44 42 46 46 48 57 61 61 67 74 73 64 67 65
26 28 28 28 28 26 26 26 28 28 29 34 37 36 37 38 40 39 39 40 41 44 42 41 44 43 46 46 48 53 63 44 55 75 79 69 70 67
26 29 29 29 29 29 28 27 26 29 33 34 34 35 36 38 39 39 37 39 42 43 42 41 44 44 46 47 49 50 50 52 62 62 76 74 73 70
26 29 30 29 32 32 33 33 34 33 32 31 33 34 36 36 37 38 37 38 40 44 43 43 44 45 47 49 49 48 57 43 61 68 71 76 79 72
31 31 32 33 35 35 35 35 35 34 34 36 36 34 34 35 36 36 36 37 39 44 45 45 45 47 48 49 48 50 54 49 56 67 74 78 76 77
28 28 27 27 28 28 29 31 32 34 34 34 36 37 34 32 33 35 35 37 39 42 44 45 47 47 49 46 49 52 53 47 50 66 71 78 75 72
23 24 24 23 23 24 24 25 26 26 28 32 34 36 37 36 34 33 33 35 38 40 43 46 46 44 45 45 50 53 52 54 58 67 72 80 84 77
23 23 22 21 21 21 21 22 24 26 24 25 28 31 33 37 36 34 33 34 36 37 41 42 40 42 44 47 49 56 54 58 57 71 73 76 86 86
23 22 22 22 22 22 22 21 21 25 26 26 26 26 27 31 34 35 33 33 33 36 40 39 40 43 45 47 50 57 56 57 53 63 71 75 79 83
Wind_Direction
279 279 279 281 282 282 283 284 285 287 282 272 261 263 271 275 269 259 260 251 248 243 239 235 225 226 228 220 221 226 234 238 232 229 230 230 235 243
280 280 281 280 280 282 283 283 283 284 282 283 272 262 259 267 271 264 258 249 248 245 240 234 229 226 230 228 224 227 230 232 229 226 225 228 230 234
277 277 276 277 277 278 279 281 283 283 283 281 285 275 262 258 266 268 259 255 245 247 244 237 232 229 226 227 230 216 228 229 227 225 221 225 227 228
276 276 276 275 274 275 277 278 278 280 282 283 282 284 276 266 260 265 263 257 249 246 245 240 233 231 221 224 218 219 215 220 224 223 220 221 224 225
275 275 275 275 275 275 274 274 275 276 278 279 280 280 281 273 266 264 264 259 255 246 245 242 237 230 222 221 218 221 225 226 217 220 221 218 220 224
276 275 274 273 273 272 271 271 271 272 272 275 276 279 279 278 271 264 262 262 253 253 245 243 241 233 228 222 227 226 221 225 220 217 220 217 219 221
278 276 275 274 272 270 269 269 269 268 268 269 270 272 275 276 275 268 263 260 256 251 247 244 240 238 230 228 224 231 229 225 222 218 218 217 217 219
276 274 273 271 270 270 270 270 268 267 267 267 268 268 270 273 273 271 265 261 256 250 249 245 240 238 233 231 227 224 223 220 225 215 218 219 215 217
274 273 272 271 269 268 267 268 267 266 266 266 266 266 267 270 270 267 263 259 256 251 248 243 244 235 233 231 231 227 222 220 221 211 217 222 214 216
274 272 271 269 268 268 267 264 263 264 266 265 266 267 264 263 263 262 259 256 255 252 248 242 241 236 231 220 221 234 221 219 222 217 217 219 215 214
278 274 271 268 266 264 264 262 261 261 261 261 261 262 263 260 260 256 254 249 250 249 248 243 237 235 230 224 222 223 227 220 220 213 224 216 212 211
284 280 275 271 267 263 262 261 259 258 259 256 255 256 256 255 256 255 250 246 237 242 243 241 238 233 229 224 222 229 219 221 222 223 221 211 210 209
287 283 279 274 269 266 262 260 259 259 257 257 256 253 252 253 250 252 249 244 235 233 237 236 235 230 229 225 222 225 222 216 222 218 211 207 210 208
289 289 286 280 274 270 264 261 263 261 258 254 253 252 249 247 249 249 244 241 237 233 234 231 230 225 228 223 218 221 224 220 225 215 216 209 211 209
285 284 284 283 282 274 266 263 259 258 256 255 254 250 248 246 245 245 243 241 237 238 235 230 228 224 225 224 217 214 207 214 226 222 213 210 208 207
285 282 280 279 279 278 271 262 255 250 249 256 253 251 250 245 243 242 239 240 238 238 237 231 227 223 222 223 220 216 212 217 214 212 212 209 204 211
292 286 279 273 270 268 268 267 260 253 251 252 256 254 249 248 246 245 241 238 238 238 238 233 229 225 222 221 219 211 202 201 206 207 210 209 204 210
286 279 278 278 277 272 267 263 261 256 254 254 254 253 253 249 247 246 243 240 238 237 238 234 233 228 223 220 219 217 207 206 209 207 209 208 204 207
283 282 279 276 275 274 271 266 262 259 254 251 250 251 253 250 246 244 244 241 236 235 236 234 232 229 223 219 215 215 215 209 211 210 207 207 207 206
292 292 290 287 283 278 273 268 264 259 254 250 249 247 248 249 247 245 243 241 236 232 234 233 231 225 224 218 214 210 211 215 214 214 215 207 206 211
296 293 294 293 290 284 278 271 262 260 256 249 247 246 245 245 245 243 240 238 235 231 232 232 229 226 225 219 212 206 207 207 209 212 212 211 204 204
302 297 295 294 294 291 285 276 264 253 255 246 247 246 244 243 242 240 238 236 235 231 231 231 228 224 222 216 208 204 206 205 209 207 208 213 208 205
305 300 299 297 295 290 283 277 269 256 249 244 240 244 244 243 239 238 238 238 233 230 229 226 221 219 217 216 209 204 204 203 208 207 208 211 212 210